Terminal Aerodrome Forecast
Issued by NWS Duluth, MN

Home | Current Version | Previous Version | Text Only | Print | Product List | Glossary On
Versions: 1 2 3 4 5 6 7 8 9 10 11 12 13 14 15 16 17 18 19 20 21
476
FTUS43 KDLH 190540
TAFINL
TAF
KINL 190540Z 1906/2006 17005KT P6SM FEW250
     FM191600 18006KT 6SM BR BKN007=

USA.gov is the U.S. government's official web portal to all federal, state and local government web resources and services.